Location: Unspecified
(54.1780°N, 0.0000°E)
Time: 13:11:33
(UTC+00:00)

Vanguard 2 - Pass Details

Date: 25 June 2019
Orbit: 554 x 2938 km, 32.9° (Epoch: 24 August)

Event Time Altitude Azimuth Distance (km) Brightness Sun altitude
Rises 10:52:54 0° 237° (WSW) 3,678 11.0 56.6°
Reaches altitude 10° 10:57:01 10° 210° (SSW) 3,154 11.1 56.8°
Maximum altitude 11:00:21 13° 185° (S) 3,263 11.4 57.1°
Drops below altitude 10° 11:04:19 10° 161° (SSE) 3,907 11.9 57.3°
Sets 11:10:54 0° 139° (SE) 5,520 12.4 57.7°
